Tracking 29510 objects as of 16-Sep-2024
HD Live streaming from Space Station
objects crossing your sky now

FENGYUN 1C DEB

Track FENGYUN 1C DEB now!
10-day predictions


NORAD ID: 30650
Int'l Code: 1999-025APH
Perigee: 811.8 km
Apogee: 920.6 km
Inclination: 99.2 °
Period: 102.1 minutes
Semi major axis: 7237 km
RCS: 0.0287 m2 (small)
Launch date: May 10, 1999
Source: People's Republic of China (PRC)
Launch site: Taiyaun Space Center, China (TSC)

Note: This is SATELLITE DEBRIS
Your satellite tracking list
Your tracking list is empty




NASA's NSSDC Master Catalog

Two Line Element Set (TLE):
1 30650U 99025APH 24259.01091854  .00007539  00000-0  41782-2 0  9997
2 30650  99.2409 280.6998 0075123  21.5338   8.5169 14.10089577898940
Source of the keplerian elements: AFSPC